C/2012 B3 ( La Sagra )

Japanese version
Home page
Updated on May 7, 2015

---------------------------------------------------------------------

* Profile

Discovery Date January 29, 2012
Magnitude 18.3 mag
Discoverer La Sagra, Spain

* Pictures

* Orbital Elements

Epoch 2011 Dec. 25.0 TT = JDT 2455920.5
T 2011 Dec. 6.85372 TT                                  MPC
q   3.5365532            (2000.0)            P               Q
z  -0.0003984      Peri.   50.73612     -0.40069418     +0.05012068
 +/-0.0000051      Node   252.99819     -0.78942107     +0.48791757
e   1.0014089      Incl.  106.93225     +0.46503606     +0.87144957
From 273 observations 2012 Jan. 29-Aug. 21, mean residual 0".5.

* Magnitudes Graph

        m1 = 9.0 + 5 log d + 10.0 log r

---------------------------------------------------------------------

The orbital elements are published on M.P.E.C. 2013-C52.
The magnitudes graphs are made with Comet for Windows.

---------------------------------------------------------------------

Copyright(C) Seiichi Yoshida (comet@aerith.net). All rights reserved.